THY9KB LTAC-LTFM

Flight info

Callsign THY9KB
Flight time 0h 58m
Altitude 28000
Route YAVRU A4 ERSEN
Aircraft B739/M-SDE2E3FGHIRWXY/LB1

Departure

Time 2026-02-17 09:44
Airport Esenboğa International Airport (LTAC)

Arrival

Time 2026-02-17 10:43
Airport İstanbul Airport (LTFM)
Time Latitude Longitude Altitude Speed Heading
2026-02-17 09:17 40.11518 32.98970 3113 ft 0 kts 174°
2026-02-17 09:31 40.11523 32.98969 3113 ft 2 kts 168°
2026-02-17 09:31 40.11538 32.98962 3113 ft 2 kts 147°
2026-02-17 09:31 40.11550 32.98947 3113 ft 2 kts 116°
2026-02-17 09:32 40.11554 32.98927 3112 ft 2 kts 88°
2026-02-17 09:32 40.11551 32.98906 3112 ft 2 kts 64°
2026-02-17 09:32 40.11548 32.98897 3112 ft 1 kts 51°
2026-02-17 09:32 40.11547 32.98897 3112 ft 0 kts 50°
2026-02-17 09:36 40.11549 32.98899 3112 ft 1 kts 50°
2026-02-17 09:36 40.11562 32.98918 3112 ft 4 kts 41°
2026-02-17 09:36 40.11603 32.98948 3112 ft 10 kts
2026-02-17 09:37 40.11663 32.98896 3112 ft 10 kts 336°
2026-02-17 09:37 40.11716 32.98921 3112 ft 11 kts 33°
2026-02-17 09:37 40.11798 32.98997 3113 ft 17 kts 36°
2026-02-17 09:37 40.11911 32.99105 3114 ft 23 kts 36°
2026-02-17 09:38 40.12054 32.99242 3116 ft 28 kts 37°
2026-02-17 09:38 40.12215 32.99397 3117 ft 28 kts 36°
2026-02-17 09:38 40.12370 32.99543 3118 ft 27 kts 36°
2026-02-17 09:39 40.12652 32.99807 3121 ft 23 kts 38°
2026-02-17 09:39 40.12779 32.99931 3122 ft 22 kts 34°
2026-02-17 09:39 40.12904 33.00049 3123 ft 22 kts 37°
2026-02-17 09:39 40.13025 33.00166 3123 ft 22 kts 36°
2026-02-17 09:40 40.13157 33.00290 3125 ft 23 kts 36°
2026-02-17 09:40 40.13294 33.00343 3127 ft 21 kts 343°
2026-02-17 09:40 40.13415 33.00249 3129 ft 20 kts
2026-02-17 09:40 40.13535 33.00344 3131 ft 22 kts 35°
2026-02-17 09:41 40.13675 33.00478 3132 ft 28 kts 36°
2026-02-17 09:41 40.13849 33.00642 3132 ft 34 kts 36°
2026-02-17 09:41 40.14046 33.00829 3133 ft 25 kts 36°
2026-02-17 09:41 40.14164 33.00839 3134 ft 18 kts 316°
2026-02-17 09:42 40.14220 33.00715 3132 ft 11 kts 263°
2026-02-17 09:42 40.14181 33.00653 3130 ft 0 kts 217°
2026-02-17 09:43 40.14180 33.00653 3130 ft 2 kts 217°
2026-02-17 09:43 40.13946 33.00430 3127 ft 81 kts 216°
2026-02-17 09:43 40.13299 32.99815 3122 ft 146 kts 216°
2026-02-17 09:44 40.12397 32.98940 3529 ft 166 kts 218°
2026-02-17 09:44 40.11465 32.98032 4374 ft 168 kts 216°
2026-02-17 09:44 40.10504 32.97109 5083 ft 181 kts 218°
2026-02-17 09:44 40.09422 32.96083 5382 ft 201 kts 217°
2026-02-17 09:45 40.08259 32.95008 5814 ft 213 kts 216°
2026-02-17 09:45 40.07013 32.93894 6349 ft 220 kts 215°
2026-02-17 09:45 40.05737 32.92762 7018 ft 223 kts 215°
2026-02-17 09:45 40.04444 32.91610 7626 ft 233 kts 215°
2026-02-17 09:46 40.03125 32.90353 8385 ft 236 kts 226°
2026-02-17 09:46 40.02310 32.88470 9192 ft 240 kts 255°
2026-02-17 09:46 40.02224 32.86276 9764 ft 258 kts 275°
2026-02-17 09:47 40.04042 32.81896 10918 ft 288 kts 303°
2026-02-17 09:47 40.05278 32.79830 11718 ft 290 kts 303°
2026-02-17 09:47 40.06517 32.77735 12494 ft 293 kts 302°
2026-02-17 09:47 40.07755 32.75604 13256 ft 296 kts 301°
2026-02-17 09:48 40.09012 32.73413 13719 ft 311 kts 301°
2026-02-17 09:48 40.10351 32.71061 13866 ft 333 kts 301°
2026-02-17 09:48 40.11774 32.68558 14047 ft 353 kts 302°
2026-02-17 09:48 40.13269 32.65936 14410 ft 365 kts 302°
2026-02-17 09:49 40.14798 32.63260 15064 ft 368 kts 302°
2026-02-17 09:49 40.16332 32.60575 15779 ft 370 kts 302°
2026-02-17 09:49 40.17877 32.57863 16419 ft 373 kts 302°
2026-02-17 09:49 40.19398 32.55184 17038 ft 378 kts 302°
2026-02-17 09:50 40.21013 32.52446 17653 ft 383 kts 306°
2026-02-17 09:50 40.22890 32.49919 18250 ft 390 kts 311°
2026-02-17 09:50 40.24897 32.47513 18829 ft 393 kts 313°
2026-02-17 09:51 40.28977 32.42701 20008 ft 397 kts 313°
2026-02-17 09:51 40.31015 32.40239 20542 ft 400 kts 312°
2026-02-17 09:51 40.33052 32.37741 21063 ft 403 kts 312°
2026-02-17 09:51 40.35099 32.35210 21607 ft 405 kts 311°
2026-02-17 09:52 40.37155 32.32661 22136 ft 408 kts 311°
2026-02-17 09:52 40.39227 32.30089 22632 ft 412 kts 312°
2026-02-17 09:52 40.41315 32.27498 23162 ft 415 kts 312°
2026-02-17 09:52 40.43420 32.24882 23596 ft 418 kts 311°
2026-02-17 09:53 40.45541 32.22245 24028 ft 421 kts 311°
2026-02-17 09:53 40.47469 32.19383 24403 ft 416 kts 297°
2026-02-17 09:53 40.48690 32.15996 24885 ft 409 kts 287°
2026-02-17 09:53 40.49697 32.12511 25517 ft 406 kts 286°
2026-02-17 09:54 40.50681 32.09048 26173 ft 403 kts 285°
2026-02-17 09:54 40.51663 32.05618 26761 ft 401 kts 285°
2026-02-17 09:54 40.52654 32.02194 27268 ft 402 kts 286°
2026-02-17 09:55 40.54670 31.95316 27736 ft 402 kts 286°
2026-02-17 09:55 40.55679 31.91893 27720 ft 400 kts 286°
2026-02-17 09:55 40.56681 31.88487 27727 ft 399 kts 285°
2026-02-17 09:55 40.57682 31.85075 27726 ft 400 kts 285°
2026-02-17 09:56 40.58666 31.81658 27729 ft 400 kts 284°
2026-02-17 09:56 40.59556 31.78237 27730 ft 400 kts 283°
2026-02-17 09:56 40.60422 31.74706 27729 ft 401 kts 282°
2026-02-17 09:56 40.61264 31.71212 27732 ft 402 kts 282°
2026-02-17 09:57 40.62103 31.67733 27720 ft 403 kts 282°
2026-02-17 09:57 40.62958 31.64216 27718 ft 403 kts 282°
2026-02-17 09:57 40.63819 31.60698 27714 ft 403 kts 282°
2026-02-17 09:57 40.64681 31.57189 27714 ft 402 kts 282°
2026-02-17 09:58 40.65554 31.53642 27709 ft 402 kts 282°
2026-02-17 09:58 40.66414 31.50146 27703 ft 401 kts 282°
2026-02-17 09:58 40.67260 31.46704 27707 ft 400 kts 282°
2026-02-17 09:59 40.68908 31.39988 27686 ft 400 kts 282°
2026-02-17 09:59 40.69760 31.36506 27697 ft 399 kts 282°
2026-02-17 09:59 40.70608 31.33035 27703 ft 399 kts 282°
2026-02-17 09:59 40.71460 31.29546 27696 ft 399 kts 282°
2026-02-17 10:00 40.72308 31.26064 27704 ft 399 kts 282°
2026-02-17 10:00 40.73166 31.22535 27693 ft 399 kts 282°
2026-02-17 10:00 40.74002 31.19087 27683 ft 400 kts 282°
2026-02-17 10:00 40.74850 31.15593 27693 ft 401 kts 282°
2026-02-17 10:01 40.75700 31.12084 27684 ft 402 kts 282°
2026-02-17 10:01 40.76549 31.08572 27688 ft 403 kts 281°
2026-02-17 10:01 40.77399 31.05051 27687 ft 403 kts 282°
2026-02-17 10:01 40.78252 31.01515 27679 ft 404 kts 281°
2026-02-17 10:02 40.79103 30.97979 27673 ft 405 kts 281°
2026-02-17 10:02 40.79954 30.94438 27673 ft 405 kts 281°
2026-02-17 10:02 40.80804 30.90897 27663 ft 405 kts 281°
2026-02-17 10:03 40.82494 30.83845 27240 ft 400 kts 281°
2026-02-17 10:03 40.83327 30.80367 26980 ft 395 kts 281°
2026-02-17 10:03 40.84148 30.76927 26726 ft 392 kts 281°
2026-02-17 10:03 40.84962 30.73504 26465 ft 392 kts 281°
2026-02-17 10:04 40.85778 30.70068 26196 ft 391 kts 281°
2026-02-17 10:04 40.86581 30.66648 25931 ft 388 kts 279°
2026-02-17 10:04 40.87066 30.63183 25681 ft 381 kts 271°
2026-02-17 10:04 40.87346 30.59720 25434 ft 379 kts 270°
2026-02-17 10:05 40.87623 30.56258 25184 ft 379 kts 270°
2026-02-17 10:05 40.87824 30.53970 25020 ft 378 kts 271°
2026-02-17 10:05 40.88145 30.50523 24761 ft 378 kts 271°
2026-02-17 10:05 40.88583 30.47087 24510 ft 384 kts 281°
2026-02-17 10:06 40.89701 30.43843 24270 ft 396 kts 297°
2026-02-17 10:06 40.91454 30.40997 24045 ft 401 kts 305°
2026-02-17 10:06 40.93346 30.38282 23809 ft 401 kts 306°
2026-02-17 10:07 40.97102 30.32862 23009 ft 397 kts 305°
2026-02-17 10:07 40.98927 30.30157 22494 ft 392 kts 305°
2026-02-17 10:07 41.00732 30.27462 21873 ft 391 kts 305°
2026-02-17 10:07 41.02525 30.24782 21364 ft 388 kts 305°
2026-02-17 10:08 41.04288 30.22155 21242 ft 374 kts 305°
2026-02-17 10:08 41.05771 30.19456 21054 ft 350 kts 287°
2026-02-17 10:08 41.06403 30.16486 20953 ft 324 kts 268°
2026-02-17 10:08 41.06285 30.13607 20687 ft 307 kts 252°
2026-02-17 10:09 41.05629 30.10960 20326 ft 299 kts 241°
2026-02-17 10:09 41.05130 30.09679 20110 ft 296 kts 235°
2026-02-17 10:09 41.03990 30.07779 19767 ft 291 kts 223°
2026-02-17 10:09 41.02516 30.05984 19405 ft 288 kts 220°
2026-02-17 10:10 41.01000 30.04257 19034 ft 286 kts 219°
2026-02-17 10:10 40.99497 30.02539 18666 ft 284 kts 219°
2026-02-17 10:10 40.98007 30.00826 18304 ft 283 kts 219°
2026-02-17 10:11 40.95059 29.97416 17540 ft 280 kts 220°
2026-02-17 10:11 40.93604 29.95730 17159 ft 277 kts 220°
2026-02-17 10:11 40.92158 29.94053 16798 ft 275 kts 220°
2026-02-17 10:11 40.90723 29.92391 16417 ft 273 kts 220°
2026-02-17 10:12 40.89298 29.90742 16070 ft 272 kts 220°
2026-02-17 10:12 40.87954 29.89005 15691 ft 272 kts 232°
2026-02-17 10:12 40.87101 29.86777 15377 ft 274 kts 248°
2026-02-17 10:12 40.86812 29.84270 15032 ft 279 kts 263°
2026-02-17 10:13 40.86788 29.81717 14687 ft 278 kts 263°
2026-02-17 10:13 40.86773 29.79161 14331 ft 277 kts 263°
2026-02-17 10:13 40.86752 29.76619 13994 ft 276 kts 263°
2026-02-17 10:13 40.86726 29.74091 13643 ft 276 kts 263°
2026-02-17 10:14 40.86696 29.71575 13200 ft 278 kts 263°
2026-02-17 10:14 40.86664 29.68995 12833 ft 277 kts 263°
2026-02-17 10:14 40.86688 29.66489 12538 ft 277 kts 268°
2026-02-17 10:15 40.87048 29.61380 11855 ft 281 kts 270°
2026-02-17 10:15 40.87246 29.58826 11502 ft 279 kts 270°
2026-02-17 10:15 40.87440 29.56287 11184 ft 276 kts 270°
2026-02-17 10:15 40.87627 29.53765 10847 ft 276 kts 270°
2026-02-17 10:16 40.87808 29.51246 10489 ft 275 kts 270°
2026-02-17 10:16 40.87985 29.48739 10138 ft 274 kts 270°
2026-02-17 10:16 40.88159 29.46241 9830 ft 271 kts 270°
2026-02-17 10:16 40.88329 29.43773 9533 ft 269 kts 269°
2026-02-17 10:17 40.88497 29.41324 9205 ft 266 kts 269°
2026-02-17 10:17 40.88661 29.38896 8884 ft 265 kts 270°
2026-02-17 10:17 40.88824 29.36478 8543 ft 264 kts 269°
2026-02-17 10:17 40.88888 29.35524 8426 ft 264 kts 269°
2026-02-17 10:18 40.89030 29.33403 8133 ft 264 kts 269°
2026-02-17 10:18 40.89191 29.30987 7779 ft 264 kts 270°
2026-02-17 10:18 40.89351 29.28571 7427 ft 263 kts 269°
2026-02-17 10:19 40.89670 29.23752 6732 ft 263 kts 269°
2026-02-17 10:19 40.89828 29.21350 6466 ft 260 kts 269°
2026-02-17 10:19 40.89984 29.18998 6284 ft 254 kts 269°
2026-02-17 10:19 40.90137 29.16689 6120 ft 251 kts 269°
2026-02-17 10:20 40.90285 29.14407 5971 ft 247 kts 269°
2026-02-17 10:20 40.90430 29.12175 5794 ft 241 kts 269°
2026-02-17 10:20 40.90573 29.09995 5635 ft 235 kts 269°
2026-02-17 10:20 40.90711 29.07873 5523 ft 227 kts 268°
2026-02-17 10:21 40.90844 29.05817 5386 ft 222 kts 268°
2026-02-17 10:21 40.90973 29.03797 5246 ft 219 kts 268°
2026-02-17 10:21 40.91101 29.01791 5089 ft 220 kts 268°
2026-02-17 10:21 40.91059 28.99787 5022 ft 216 kts 256°
2026-02-17 10:22 40.90785 28.97882 4999 ft 212 kts 253°
2026-02-17 10:22 40.90486 28.95978 4990 ft 212 kts 253°
2026-02-17 10:22 40.90193 28.94051 5003 ft 215 kts 253°
2026-02-17 10:23 40.89625 28.90173 4994 ft 215 kts 254°
2026-02-17 10:23 40.89346 28.88236 4992 ft 214 kts 254°
2026-02-17 10:23 40.89069 28.86306 4990 ft 214 kts 254°
2026-02-17 10:23 40.88960 28.84345 4997 ft 221 kts 275°
2026-02-17 10:24 40.89619 28.82438 4900 ft 243 kts 303°
2026-02-17 10:24 40.91005 28.81026 4714 ft 257 kts 324°
2026-02-17 10:24 40.92583 28.79967 4484 ft 251 kts 327°
2026-02-17 10:24 40.94141 28.78975 4287 ft 246 kts 327°
2026-02-17 10:25 40.95660 28.77992 4110 ft 241 kts 327°
2026-02-17 10:25 40.97159 28.77011 4012 ft 239 kts 327°
2026-02-17 10:25 40.98650 28.76025 4013 ft 240 kts 327°
2026-02-17 10:25 41.00142 28.75034 3986 ft 238 kts 327°
2026-02-17 10:26 41.01596 28.74068 3991 ft 230 kts 326°
2026-02-17 10:26 41.03045 28.73198 3972 ft 233 kts 341°
2026-02-17 10:26 41.04681 28.73102 4027 ft 236 kts 356°
2026-02-17 10:27 41.07888 28.73111 3938 ft 228 kts 354°
2026-02-17 10:27 41.09457 28.73086 4037 ft 230 kts 354°
2026-02-17 10:27 41.11098 28.73057 3849 ft 237 kts 354°
2026-02-17 10:27 41.12742 28.73028 3628 ft 235 kts 355°
2026-02-17 10:28 41.14370 28.73024 3208 ft 236 kts 355°
2026-02-17 10:28 41.16050 28.72977 2538 ft 244 kts 355°
2026-02-17 10:28 41.17753 28.72940 1973 ft 244 kts 356°
2026-02-17 10:28 41.19397 28.72912 1663 ft 229 kts 356°
2026-02-17 10:29 41.20941 28.72882 1338 ft 211 kts 356°
2026-02-17 10:29 41.22327 28.72855 1093 ft 192 kts 356°
2026-02-17 10:29 41.23597 28.72830 882 ft 175 kts 357°
2026-02-17 10:29 41.24905 28.72791 972 ft 196 kts 357°
2026-02-17 10:30 41.26295 28.72767 1433 ft 201 kts 356°
2026-02-17 10:30 41.27708 28.72746 1957 ft 208 kts 357°
2026-02-17 10:30 41.29210 28.72716 2274 ft 222 kts 356°
2026-02-17 10:31 41.32400 28.72653 2895 ft 243 kts 356°
2026-02-17 10:31 41.34148 28.72617 2967 ft 258 kts 356°
2026-02-17 10:31 41.35957 28.72583 2951 ft 263 kts 356°
2026-02-17 10:31 41.37799 28.72548 2934 ft 265 kts 356°
2026-02-17 10:32 41.39633 28.72514 2966 ft 262 kts 356°
2026-02-17 10:32 41.41438 28.72481 2959 ft 256 kts 356°
2026-02-17 10:32 41.43201 28.72451 2960 ft 251 kts 356°
2026-02-17 10:32 41.44940 28.72424 2972 ft 250 kts 356°
2026-02-17 10:33 41.46684 28.72397 2987 ft 251 kts 356°
2026-02-17 10:33 41.48440 28.72372 2988 ft 256 kts 356°
2026-02-17 10:33 41.50209 28.72347 2976 ft 251 kts 356°
2026-02-17 10:33 41.51922 28.72329 2958 ft 242 kts 356°
2026-02-17 10:34 41.53577 28.72232 2955 ft 234 kts 342°
2026-02-17 10:34 41.54951 28.71304 2992 ft 222 kts 316°
2026-02-17 10:34 41.56364 28.70400 2955 ft 230 kts 353°
2026-02-17 10:35 41.58879 28.72551 2964 ft 222 kts 78°
2026-02-17 10:35 41.58884 28.74475 2992 ft 202 kts 107°
2026-02-17 10:35 41.58464 28.76191 2946 ft 190 kts 137°
2026-02-17 10:35 41.57493 28.76972 2984 ft 169 kts 181°
2026-02-17 10:36 41.56348 28.76821 2996 ft 170 kts 192°
2026-02-17 10:36 41.55167 28.76584 2985 ft 173 kts 192°
2026-02-17 10:36 41.53977 28.76345 2972 ft 172 kts 192°
2026-02-17 10:36 41.52775 28.76104 2986 ft 178 kts 192°
2026-02-17 10:37 41.51543 28.75856 2977 ft 179 kts 192°
2026-02-17 10:37 41.50311 28.75610 2968 ft 178 kts 192°
2026-02-17 10:37 41.49094 28.75366 2966 ft 177 kts 192°
2026-02-17 10:37 41.47851 28.75211 2967 ft 178 kts 183°
2026-02-17 10:38 41.46638 28.75256 2981 ft 176 kts 182°
2026-02-17 10:38 41.45420 28.75299 2984 ft 175 kts 183°
2026-02-17 10:38 41.44204 28.75328 2973 ft 175 kts 183°
2026-02-17 10:39 41.41785 28.75375 2702 ft 169 kts 183°
2026-02-17 10:39 41.40634 28.75398 2475 ft 163 kts 183°
2026-02-17 10:39 41.39498 28.75418 2286 ft 164 kts 182°
2026-02-17 10:39 41.38359 28.75439 2058 ft 163 kts 182°
2026-02-17 10:40 41.37240 28.75460 1839 ft 157 kts 181°
2026-02-17 10:40 41.36173 28.75481 1660 ft 151 kts 181°
2026-02-17 10:40 41.35123 28.75500 1482 ft 148 kts 182°
2026-02-17 10:40 41.34123 28.75519 1248 ft 138 kts 182°
2026-02-17 10:41 41.33166 28.75536 1091 ft 139 kts 181°
2026-02-17 10:41 41.32174 28.75581 928 ft 146 kts 180°
2026-02-17 10:41 41.31173 28.75597 741 ft 138 kts 180°
2026-02-17 10:41 41.30236 28.75613 517 ft 132 kts 181°
2026-02-17 10:42 41.29305 28.75627 354 ft 135 kts 181°
2026-02-17 10:42 41.28386 28.75641 253 ft 124 kts 183°
2026-02-17 10:42 41.27677 28.75648 286 ft 80 kts 179°
2026-02-17 10:43 41.27094 28.75579 303 ft 29 kts 202°
2026-02-17 10:43 41.26938 28.75457 308 ft 24 kts 210°
2026-02-17 10:43 41.26802 28.75372 308 ft 16 kts 186°
2026-02-17 10:43 41.26691 28.75375 310 ft 16 kts 179°
2026-02-17 10:44 41.26623 28.75297 310 ft 13 kts 269°
2026-02-17 10:44 41.26627 28.75178 312 ft 13 kts 298°
2026-02-17 10:44 41.26661 28.75097 312 ft 7 kts 278°
2026-02-17 10:44 41.26668 28.75032 312 ft 7 kts 278°
2026-02-17 10:45 41.26671 28.75006 312 ft 0 kts 278°